Hill City, KS

7:53 PM CDT on August 17, 2019 (GMT -0500)
Hill City Municipal

Weather History for KHLC - May, 2019

Change the Weather History Date:

Sunday, May 19, 2019

  Actual Average Record
Temperature  
Mean Temperature 55 °F 64 °F  
Max Temperature 66 °F 76 °F 99 °F (2006)
Min Temperature 44 °F 51 °F 30 °F (1931)
Degree Days  
Heating Degree Days 10    
Growing Degree Days 5 (Base 50)    
Moisture  
Dew Point 42 °F    
Average Humidity 66    
Maximum Humidity 89    
Minimum Humidity 39    
Precipitation  
Precipitation 0.00 in 0.11 in 1.57 in (2017)
Month to date precipitation 3.68 2.30  
Year to date precipitation 6.35 7.02  
Sea Level Pressure  
Sea Level Pressure 29.91 in    
Wind  
Wind Speed 10 mph ()    
Max Wind Speed 21 mph    
Max Gust Speed 29 mph    
Visibility 10.0 miles    
Events      
T = Trace of Precipitation, MM = Missing Value Source: Averaged Metar Reports

Daily Weather History Graph

Daily Weather History Graph

Search for Another Location

Airport or City:

Astronomy

May. 19, 2019 Rise Set
Actual Time 6:22 AM CDT 8:49 PM CDT
Civil Twilight 5:51 AM CDT 9:20 PM CDT
Nautical Twilight 5:13 AM CDT 9:58 PM CDT
Astronomical Twilight 4:31 AM CDT 10:40 PM CDT
Moon 9:51 PM CDT (5/19) 7:08 AM CDT (5/19)
Length of Visible Light 15h 28m
Length of Day
14h 27m
Full, 99% of the Moon is Illuminated
May 19
Full
May 26
Last Quarter
Jun 3
New
Jun 10
First Quarter
Jun 17
Full

Hourly Weather History & Observations

Time (CDT) Temp. Windchill Dew Point Humidity Pressure Visibility Wind Dir Wind Speed Gust Speed Precip Events Conditions
12:53 AM 53.1 °F - 50.0 °F 89% 29.72 in 10.0 mi NNW 9.2 mph - 0.00 in   Clear
1:53 AM 53.1 °F - 48.0 °F 83% 29.75 in 10.0 mi NNW 10.4 mph - N/A   Clear
2:45 AM 51.1 °F - 48.0 °F 89% 29.82 in 10.0 mi NW 4.6 mph - N/A   Mostly Cloudy
2:53 AM 51.1 °F - 48.0 °F 89% 29.78 in 10.0 mi NW 6.9 mph - N/A   Scattered Clouds
3:53 AM 46.9 °F - 41.0 °F 80% 29.81 in 10.0 mi NW 16.1 mph 28.8 mph N/A   Clear
4:53 AM 45.0 °F 37.6 °F 39.0 °F 80% 29.84 in 10.0 mi NW 17.3 mph 25.3 mph N/A   Clear
5:53 AM 45.0 °F 38.5 °F 39.0 °F 80% 29.85 in 10.0 mi WNW 13.8 mph 23.0 mph N/A   Clear
6:31 AM 44.1 °F 37.7 °F 37.9 °F 79% 29.89 in 10.0 mi NW 12.7 mph 25.3 mph N/A   Scattered Clouds
6:53 AM 44.1 °F 38.1 °F 37.9 °F 79% 29.88 in 10.0 mi WNW 11.5 mph - N/A   Scattered Clouds
7:53 AM 46.0 °F 39.6 °F 39.0 °F 76% 29.91 in 10.0 mi NNW 15.0 mph 23.0 mph N/A   Clear
8:53 AM 48.0 °F - 39.0 °F 71% 29.94 in 10.0 mi NW 17.3 mph 25.3 mph N/A   Clear
9:53 AM 51.1 °F - 39.9 °F 66% 29.95 in 10.0 mi NNW 20.7 mph 26.5 mph N/A   Clear
10:53 AM 54.0 °F - 39.9 °F 59% 29.96 in 10.0 mi NW 17.3 mph 28.8 mph N/A   Clear
11:53 AM 57.0 °F - 39.9 °F 53% 29.98 in 10.0 mi NNW 18.4 mph 26.5 mph N/A   Partly Cloudy
12:53 PM 59.0 °F - 41.0 °F 51% 29.97 in 10.0 mi NW 10.4 mph 20.7 mph N/A   Clear
1:53 PM 62.1 °F - 39.9 °F 44% 29.96 in 10.0 mi NNW 9.2 mph - N/A   Clear
2:53 PM 63.0 °F - 39.0 °F 41% 29.96 in 10.0 mi NNW 9.2 mph 19.6 mph N/A   Clear
3:53 PM 64.9 °F - 39.9 °F 40% 29.94 in 10.0 mi North 9.2 mph 20.7 mph N/A   Clear
4:53 PM 64.9 °F - 39.9 °F 40% 29.93 in 10.0 mi NW 4.6 mph - N/A   Clear
5:53 PM 64.9 °F - 39.0 °F 39% 29.93 in 10.0 mi NE 4.6 mph - N/A   Clear
6:53 PM 64.0 °F - 41.0 °F 43% 29.94 in 10.0 mi NE 6.9 mph - N/A   Clear
7:53 PM 60.1 °F - 46.0 °F 60% 29.97 in 10.0 mi NE 5.8 mph - N/A   Clear
8:53 PM 54.0 °F - 46.0 °F 75% 29.99 in 10.0 mi NE 8.1 mph - N/A   Clear
9:53 PM 55.0 °F - 45.0 °F 69% 29.99 in 10.0 mi ENE 9.2 mph - N/A   Clear
10:53 PM 53.1 °F - 44.1 °F 71% 30.00 in 10.0 mi NE 12.7 mph - N/A   Clear
11:53 PM 51.1 °F - 39.9 °F 66% 30.01 in 10.0 mi ENE 13.8 mph 23.0 mph N/A   Clear